YB4RWH-13 Weather Reports


time (UTC)temp
C
wind
direction
speed
KPH
gust
KPH
rain 1hr
cm
rain 24hr
cm
rain mn
cm
humidity
%
barometer
mb
20260505113311 29 0.0 0.0 0.00 0.00 0.00 72 1010.5
20260505112810 29 0.0 0.0 0.00 0.00 0.00 72 1010.4
20260505112311 29 0.0 0.0 0.00 0.00 0.00 72 1010.4
20260505111811 29 0.0 0.0 0.00 0.00 0.00 71 1010.4
20260505111311 29 0.0 0.0 0.00 0.00 0.00 71 1010.2
20260505110811 29 0.0 0.0 0.00 0.00 0.00 71 1010.1
20260505110310 29 0.0 0.0 0.00 0.00 0.00 72 1010.1
20260505101811 30 0.0 0.0 0.00 0.00 0.00 69 1009.4
20260505101310 30 0.0 0.0 0.00 0.00 0.00 68 1009.4
20260505100811 30 0.0 0.0 0.00 0.00 0.00 68 1009.3
20260505100310 30 0.0 0.0 0.00 0.00 0.00 68 1009.4
20260505095811 30 0.0 0.0 0.00 0.00 0.00 68 1009.4
20260505095311 30 0.0 0.0 0.00 0.00 0.00 68 1009.3
20260505094810 30 0.0 0.0 0.00 0.00 0.00 68 1009.2
20260505094311 30 0.0 0.0 0.00 0.00 0.00 68 1009.1
20260505093810 30 0.0 0.0 0.00 0.00 0.00 68 1009.1
20260505093311 30 0.0 0.0 0.00 0.00 0.00 68 1009.2
20260505092811 30 0.0 0.0 0.00 0.00 0.00 68 1009.1
20260505092311 30 0.0 0.0 0.00 0.00 0.00 68 1008.9
20260505091810 30 0.0 0.0 0.00 0.00 0.00 68 1008.9
20260505091312 30 0.0 0.0 0.00 0.00 0.00 68 1008.9
20260505090811 30 0.0 0.0 0.00 0.00 0.00 68 1008.9
20260505090311 30 0.0 0.0 0.00 0.00 0.00 68 1008.8
20260505085811 30 0.0 0.0 0.00 0.00 0.00 68 1008.8
20260505085311 30 0.0 0.0 0.00 0.00 0.00 68 1008.8
20260505084811 30 0.0 0.0 0.00 0.00 0.00 67 1008.8
20260505084311 30 0.0 0.0 0.00 0.00 0.00 67 1008.7
20260505083811 30 0.0 0.0 0.00 0.00 0.00 66 1008.6
20260505083311 30 0.0 0.0 0.00 0.00 0.00 66 1008.5
20260505082811 30 0.0 0.0 0.00 0.00 0.00 66 1008.6
20260505082310 30 0.0 0.0 0.00 0.00 0.00 67 1008.6
20260505081810 30 0.0 0.0 0.00 0.00 0.00 67 1008.6
20260505081311 30 0.0 0.0 0.00 0.00 0.00 67 1008.6
20260505080811 30 0.0 0.0 0.00 0.00 0.00 68 1008.4
20260505080310 31 0.0 0.0 0.00 0.00 0.00 68 1008.4
20260505075810 31 0.0 0.0 0.00 0.00 0.00 68 1008.4
20260505075311 31 0.0 0.0 0.00 0.00 0.00 69 1008.4
20260505074810 31 0.0 0.0 0.00 0.00 0.00 68 1008.4
20260505074311 31 0.0 0.0 0.00 0.00 0.00 67 1008.5
20260505073810 31 0.0 0.0 0.00 0.00 0.00 68 1008.4
20260505073311 31 0.0 0.0 0.00 0.00 0.00 69 1008.4
20260505072811 31 0.0 0.0 0.00 0.00 0.00 69 1008.3
20260505072311 31 0.0 0.0 0.00 0.00 0.00 67 1008.4
20260505071811 31 0.0 0.0 0.00 0.00 0.00 67 1008.4
20260505071311 31 0.0 0.0 0.00 0.00 0.00 67 1008.3
20260505070810 31 0.0 0.0 0.00 0.00 0.00 67 1008.3
20260505070311 31 0.0 0.0 0.00 0.00 0.00 67 1008.4
20260505065811 31 0.0 0.0 0.00 0.00 0.00 67 1008.4
20260505065312 31 0.0 0.0 0.00 0.00 0.00 67 1008.6
20260505064811 31 0.0 0.0 0.00 0.00 0.00 67 1008.8
20260505064311 31 0.0 0.0 0.00 0.00 0.00 68 1008.9
20260505063810 31 0.0 0.0 0.00 0.00 0.00 69 1008.9
20260505063311 31 0.0 0.0 0.00 0.00 0.00 69 1009.0
20260505062811 31 0.0 0.0 0.00 0.00 0.00 69 1009.0
20260505062311 31 0.0 0.0 0.00 0.00 0.00 70 1009.1
20260505061811 31 0.0 0.0 0.00 0.00 0.00 71 1009.2
20260505061311 30 0.0 0.0 0.00 0.00 0.00 72 1009.3
20260505060811 30 0.0 0.0 0.00 0.00 0.00 72 1009.5
20260505060311 30 0.0 0.0 0.00 0.00 0.00 72 1009.7
20260505055811 30 0.0 0.0 0.00 0.00 0.00 73 1009.8
20260505055311 30 0.0 0.0 0.00 0.00 0.00 73 1009.9
20260505054811 30 0.0 0.0 0.00 0.00 0.00 73 1010.0
20260505054311 30 0.0 0.0 0.00 0.00 0.00 73 1010.1
20260505053811 30 0.0 0.0 0.00 0.00 0.00 73 1010.2
20260505053311 30 0.0 0.0 0.00 0.00 0.00 73 1010.2
20260505052811 30 0.0 0.0 0.00 0.00 0.00 73 1010.4
20260505052311 30 0.0 0.0 0.00 0.00 0.00 73 1010.3
20260505051811 30 0.0 0.0 0.00 0.00 0.00 74 1010.5
20260505051311 29 0.0 0.0 0.00 0.00 0.00 74 1010.6
20260505050811 29 0.0 0.0 0.00 0.00 0.00 74 1010.7
20260505050311 29 0.0 0.0 0.00 0.00 0.00 73 1010.7
20260505040811 28 0.0 0.0 0.00 0.00 0.00 75 1012.2
20260505040310 28 0.0 0.0 0.00 0.00 0.00 75 1012.3
20260505035811 28 0.0 0.0 0.00 0.00 0.00 74 1012.4
20260505035310 28 0.0 0.0 0.00 0.00 0.00 75 1012.5
20260505034810 28 0.0 0.0 0.00 0.00 0.00 75 1012.6
20260505034310 28 0.0 0.0 0.00 0.00 0.00 75 1012.7
20260505033811 28 0.0 0.0 0.00 0.00 0.00 76 1012.8
20260505033310 28 0.0 0.0 0.00 0.00 0.00 77 1012.8
20260505032811 28 0.0 0.0 0.00 0.00 0.00 77 1012.9
20260505032310 28 0.0 0.0 0.00 0.00 0.00 77 1012.9
20260505031811 28 0.0 0.0 0.00 0.00 0.00 77 1012.9
20260505031310 28 0.0 0.0 0.00 0.00 0.00 77 1013.1
20260505030811 27 0.0 0.0 0.00 0.00 0.00 78 1013.2
20260505030310 27 0.0 0.0 0.00 0.00 0.00 79 1013.3
20260505025810 27 0.0 0.0 0.00 0.00 0.00 79 1013.4
20260505025311 27 0.0 0.0 0.00 0.00 0.00 80 1013.5
20260505024810 27 0.0 0.0 0.00 0.00 0.00 80 1013.3
20260505024311 27 0.0 0.0 0.00 0.00 0.00 81 1013.3
20260505023810 27 0.0 0.0 0.00 0.00 0.00 81 1013.4
20260505023311 27 0.0 0.0 0.00 0.00 0.00 81 1013.4
20260505022810 27 0.0 0.0 0.00 0.00 0.00 81 1013.6
20260505022311 26 0.0 0.0 0.00 0.00 0.00 84 1013.6
20260505021810 26 0.0 0.0 0.00 0.00 0.00 84 1013.6
20260505021311 26 0.0 0.0 0.00 0.00 0.00 84 1013.7
20260505020810 26 0.0 0.0 0.00 0.00 0.00 83 1013.8
20260505020311 26 0.0 0.0 0.00 0.00 0.00 82 1013.7
20260505015810 26 0.0 0.0 0.00 0.00 0.00 81 1013.6
20260505015311 26 0.0 0.0 0.00 0.00 0.00 81 1013.5
20260505014810 26 0.0 0.0 0.00 0.00 0.00 81 1013.7
20260505014311 26 0.0 0.0 0.00 0.00 0.00 81 1013.5
20260505013810 26 0.0 0.0 0.00 0.00 0.00 81 1013.6
20260505013310 26 0.0 0.0 0.00 0.00 0.00 81 1013.6
20260505012810 26 0.0 0.0 0.00 0.00 0.00 81 1013.6
20260505012311 26 0.0 0.0 0.00 0.00 0.00 81 1013.6
20260505011810 26 0.0 0.0 0.00 0.00 0.00 81 1013.5
20260505011311 26 0.0 0.0 0.00 0.00 0.00 80 1013.6
20260505010810 26 0.0 0.0 0.00 0.00 0.00 80 1013.5
20260505010310 26 0.0 0.0 0.00 0.00 0.00 80 1013.5
20260505005810 26 0.0 0.0 0.00 0.00 0.00 80 1013.5
20260505005311 26 0.0 0.0 0.00 0.00 0.00 79 1013.4
20260505004810 26 0.0 0.0 0.00 0.00 0.00 79 1013.4
20260505004311 26 0.0 0.0 0.00 0.00 0.00 79 1013.3
20260505003810 26 0.0 0.0 0.00 0.00 0.00 78 1013.2
20260505003311 26 0.0 0.0 0.00 0.00 0.00 78 1013.4
20260505002810 26 0.0 0.0 0.00 0.00 0.00 78 1013.4
20260505002311 26 0.0 0.0 0.00 0.00 0.00 77 1013.4
20260505001811 26 0.0 0.0 0.00 0.00 0.00 77 1013.3
20260505001310 26 0.0 0.0 0.00 0.00 0.00 77 1013.5
20260505000811 26 0.0 0.0 0.00 0.00 0.00 77 1013.4
20260505000311 26 0.0 0.0 0.00 0.00 0.00 77 1013.3
20260504235811 26 0.0 0.0 0.00 0.00 0.00 77 1013.2
20260504235310 26 0.0 0.0 0.00 0.00 0.00 77 1013.3
20260504234811 26 0.0 0.0 0.00 0.00 0.00 77 1013.1
20260504234310 26 0.0 0.0 0.00 0.00 0.00 77 1013.1
20260504233811 26 0.0 0.0 0.00 0.00 0.00 77 1013.0
20260504233311 26 0.0 0.0 0.00 0.00 0.00 77 1013.0
20260504232812 26 0.0 0.0 0.00 0.00 0.00 77 1012.9
20260504232310 26 0.0 0.0 0.00 0.00 0.00 77 1012.9
20260504231811 26 0.0 0.0 0.00 0.00 0.00 77 1012.8
20260504231311 26 0.0 0.0 0.00 0.00 0.00 78 1012.8
20260504230811 26 0.0 0.0 0.00 0.00 0.00 77 1012.7
20260504230311 26 0.0 0.0 0.00 0.00 0.00 77 1012.6
20260504225811 26 0.0 0.0 0.00 0.00 0.00 77 1012.7
20260504225311 26 0.0 0.0 0.00 0.00 0.00 77 1012.6
20260504224811 26 0.0 0.0 0.00 0.00 0.00 77 1012.5
20260504224311 26 0.0 0.0 0.00 0.00 0.00 77 1012.4
20260504223811 26 0.0 0.0 0.00 0.00 0.00 77 1012.2
20260504223311 26 0.0 0.0 0.00 0.00 0.00 77 1012.1
20260504222811 26 0.0 0.0 0.00 0.00 0.00 77 1012.0
20260504222310 26 0.0 0.0 0.00 0.00 0.00 77 1011.9
20260504221811 26 0.0 0.0 0.00 0.00 0.00 77 1011.8
20260504221310 26 0.0 0.0 0.00 0.00 0.00 76 1011.8
20260504220811 26 0.0 0.0 0.00 0.00 0.00 76 1011.7
20260504220310 26 0.0 0.0 0.00 0.00 0.00 76 1011.6
20260504215811 26 0.0 0.0 0.00 0.00 0.00 76 1011.5
20260504215310 26 0.0 0.0 0.00 0.00 0.00 76 1011.4
20260504214811 26 0.0 0.0 0.00 0.00 0.00 76 1011.4
20260504214310 26 0.0 0.0 0.00 0.00 0.00 76 1011.4
20260504213811 26 0.0 0.0 0.00 0.00 0.00 76 1011.4
20260504213310 26 0.0 0.0 0.00 0.00 0.00 76 1011.3
20260504212810 26 0.0 0.0 0.00 0.00 0.00 76 1011.3
20260504212311 26 0.0 0.0 0.00 0.00 0.00 76 1011.3
20260504211811 26 0.0 0.0 0.00 0.00 0.00 75 1011.2
20260504210811 26 0.0 0.0 0.00 0.00 0.00 75 1011.2
20260504210311 26 0.0 0.0 0.00 0.00 0.00 75 1011.1
20260504205811 26 0.0 0.0 0.00 0.00 0.00 75 1011.0
20260504205311 26 0.0 0.0 0.00 0.00 0.00 75 1011.1
20260504204811 26 0.0 0.0 0.00 0.00 0.00 75 1011.1
20260504204311 26 0.0 0.0 0.00 0.00 0.00 75 1011.2
20260504203810 26 0.0 0.0 0.00 0.00 0.00 75 1011.2
20260504203310 26 0.0 0.0 0.00 0.00 0.00 75 1011.4
20260504202811 26 0.0 0.0 0.00 0.00 0.00 75 1011.4
20260504202310 26 0.0 0.0 0.00 0.00 0.00 75 1011.3
20260504201811 26 0.0 0.0 0.00 0.00 0.00 75 1011.3
20260504201311 26 0.0 0.0 0.00 0.00 0.00 75 1011.3
20260504200311 26 0.0 0.0 0.00 0.00 0.00 75 1011.3
20260504195810 26 0.0 0.0 0.00 0.00 0.00 75 1011.4
20260504195311 26 0.0 0.0 0.00 0.00 0.00 75 1011.4
20260504194810 26 0.0 0.0 0.00 0.00 0.00 75 1011.5
20260504194311 27 0.0 0.0 0.00 0.00 0.00 74 1011.5
20260504193811 27 0.0 0.0 0.00 0.00 0.00 74 1011.5
20260504193310 27 0.0 0.0 0.00 0.00 0.00 74 1011.5
20260504192811 27 0.0 0.0 0.00 0.00 0.00 73 1011.4
20260504192310 27 0.0 0.0 0.00 0.00 0.00 73 1011.6
20260504191811 27 0.0 0.0 0.00 0.00 0.00 73 1011.6
20260504191311 27 0.0 0.0 0.00 0.00 0.00 73 1011.7
20260504190811 27 0.0 0.0 0.00 0.00 0.00 73 1011.7
20260504190310 27 0.0 0.0 0.00 0.00 0.00 73 1011.8
20260504185811 27 0.0 0.0 0.00 0.00 0.00 73 1011.8
20260504185311 27 0.0 0.0 0.00 0.00 0.00 73 1011.8
20260504184811 27 0.0 0.0 0.00 0.00 0.00 73 1012.0
20260504184311 27 0.0 0.0 0.00 0.00 0.00 73 1012.0
20260504183811 27 0.0 0.0 0.00 0.00 0.00 73 1012.1
20260504183311 27 0.0 0.0 0.00 0.00 0.00 74 1012.2
20260504182811 27 0.0 0.0 0.00 0.00 0.00 74 1012.3
20260504182311 27 0.0 0.0 0.00 0.00 0.00 75 1012.2
20260504181810 27 0.0 0.0 0.00 0.00 0.00 75 1012.3
20260504181311 27 0.0 0.0 0.00 0.00 0.00 75 1012.4
20260504180810 27 0.0 0.0 0.00 0.00 0.00 75 1012.4
20260504180311 27 0.0 0.0 0.00 0.00 0.00 75 1012.4
20260504175810 27 0.0 0.0 0.00 0.00 0.00 76 1012.6
20260504175310 27 0.0 0.0 0.00 0.00 0.00 76 1012.6
20260504174811 27 0.0 0.0 0.00 0.00 0.00 76 1012.8
20260504174311 27 0.0 0.0 0.00 0.00 0.00 75 1013.0
20260504173811 27 0.0 0.0 0.00 0.00 0.00 75 1013.0
20260504173313 27 0.0 0.0 0.00 0.00 0.00 75 1013.0
20260504172811 27 0.0 0.0 0.00 0.00 0.00 76 1013.0
20260504172310 27 0.0 0.0 0.00 0.00 0.00 75 1013.1
20260504171811 27 0.0 0.0 0.00 0.00 0.00 75 1013.2
20260504171311 27 0.0 0.0 0.00 0.00 0.00 75 1013.3
20260504170811 27 0.0 0.0 0.00 0.00 0.00 75 1013.4
20260504170311 27 0.0 0.0 0.00 0.00 0.00 75 1013.4
20260504160311 27 0.0 0.0 0.00 0.00 0.00 75 1013.7
20260504150811 28 0.0 0.0 0.00 0.00 0.00 74 1013.1
20260504150311 28 0.0 0.0 0.00 0.00 0.00 73 1013.2
20260504141311 28 0.0 0.0 0.00 0.00 0.00 73 1013.9
20260504140813 28 0.0 0.0 0.00 0.00 0.00 73 1013.7
20260504140312 28 0.0 0.0 0.00 0.00 0.00 73 1013.8
20260504130811 28 0.0 0.0 0.00 0.00 0.00 71 1013.3
20260504130311 28 0.0 0.0 0.00 0.00 0.00 71 1013.2
20260504120311 29 0.0 0.0 0.00 0.00 0.00 71 1012.1